Location: Stuttgart
(48.8069°N, 9.1544°E)
Time: 15:06:26
(UTC+01:00)

ISS - Pass Details

Date: 10 January 2018
Orbit: 402 x 407 km, 51.6° (Epoch: 21 January)

Event Time Altitude Azimuth Distance (km) Brightness Sun altitude
Exits shadow 06:31:06 44° 291° (WNW) 577 -3.6 -16.3°
Maximum altitude 06:32:02 89° 16° (NNE) 412 -3.9 -16.1°
Drops below altitude 10° 06:35:20 10° 111° (ESE) 1,466 0.4 -15.6°
Sets 06:37:25 0° 112° (ESE) 2,325 1.9 -15.3°
